Temperatura - Umidità - Pioggia orarie dal 22-03-2020 al 30-03-2020

Dati orari da stazione meteo dal 22-03-2020 al 30-03-2020

Nome Stazione Data Ora Temperatura [°C] Umidità [%] Pioggia [mm] Pressione[hPa]
Sant'Anna di Vinadio 22-03-2020 01:00 1 69 0 1012.9
Sant'Anna di Vinadio 22-03-2020 01:10 0.9 69 0 1012.9
Sant'Anna di Vinadio 22-03-2020 01:20 1 67 0 1012.8
Sant'Anna di Vinadio 22-03-2020 01:30 1 67 0 1012.8
Sant'Anna di Vinadio 22-03-2020 01:40 0.9 68 0 1012.8
Sant'Anna di Vinadio 22-03-2020 01:50 0.9 67 0 1012.8
Sant'Anna di Vinadio 22-03-2020 02:00 0.9 67 0 1012.7
Sant'Anna di Vinadio 22-03-2020 02:10 0.9 67 0 1012.6
Sant'Anna di Vinadio 22-03-2020 02:20 0.9 67 0 1012.7
Sant'Anna di Vinadio 22-03-2020 02:30 0.8 68 0 1012.6
Sant'Anna di Vinadio 22-03-2020 02:40 0.8 68 0 1012.6
Sant'Anna di Vinadio 22-03-2020 02:50 0.7 68 0 1012.4
Sant'Anna di Vinadio 22-03-2020 03:00 0.7 69 0 1012.4
Sant'Anna di Vinadio 22-03-2020 03:10 0.6 70 0 1012.4
Sant'Anna di Vinadio 22-03-2020 03:20 0.6 71 0 1012.4
Sant'Anna di Vinadio 22-03-2020 03:30 0.6 71 0 1012.4
Sant'Anna di Vinadio 22-03-2020 03:40 0.5 72 0 1012.3
Sant'Anna di Vinadio 22-03-2020 03:50 0.5 72 0 1012.3
Sant'Anna di Vinadio 22-03-2020 04:00 0.3 72 0 1012.3
Sant'Anna di Vinadio 22-03-2020 04:10 0.2 73 0 1012.3
Sant'Anna di Vinadio 22-03-2020 04:20 0.2 74 0 1012.4
Sant'Anna di Vinadio 22-03-2020 04:30 0.2 74 0 1012.3
Sant'Anna di Vinadio 22-03-2020 04:40 0.1 76 0 1012.3
Sant'Anna di Vinadio 22-03-2020 04:50 -0.1 77 0 1012.3
Sant'Anna di Vinadio 22-03-2020 05:00 -0.2 78 0 1012.3
Sant'Anna di Vinadio 22-03-2020 05:10 -0.5 82 0 1012.4
Sant'Anna di Vinadio 22-03-2020 05:20 -0.3 84 0 1012.4
Sant'Anna di Vinadio 22-03-2020 05:30 -0.3 85 0 1012.4
Sant'Anna di Vinadio 22-03-2020 05:40 -0.4 87 0 1012.4
Sant'Anna di Vinadio 22-03-2020 05:50 -0.6 90 0 1012.4
Sant'Anna di Vinadio 22-03-2020 06:00 -0.6 95 0 1012.5
Sant'Anna di Vinadio 22-03-2020 06:10 -0.7 97 0 1012.5
Sant'Anna di Vinadio 22-03-2020 06:20 -0.9 99 0 1012.6
Sant'Anna di Vinadio 22-03-2020 06:30 -0.9 104 0 1012.7
Sant'Anna di Vinadio 22-03-2020 06:40 -0.9 104 0 1012.7
Sant'Anna di Vinadio 22-03-2020 06:50 -0.8 104 0 1012.8
Sant'Anna di Vinadio 22-03-2020 07:00 -0.8 104 0 1012.9
Sant'Anna di Vinadio 22-03-2020 07:10 -0.9 104 0 1012.8
Sant'Anna di Vinadio 22-03-2020 07:20 -0.9 104 0 1012.9
Sant'Anna di Vinadio 22-03-2020 07:30 -0.9 104 0 1012.9
Sant'Anna di Vinadio 22-03-2020 07:40 -0.9 104 0 1012.9
Sant'Anna di Vinadio 22-03-2020 07:50 -0.9 104 0 1012.9
Sant'Anna di Vinadio 22-03-2020 08:00 -0.8 104 0 1013
Sant'Anna di Vinadio 22-03-2020 08:10 -0.8 104 0 1013
Sant'Anna di Vinadio 22-03-2020 08:20 -0.6 104 0 1013
Sant'Anna di Vinadio 22-03-2020 08:30 -0.6 104 0 1013.1
Sant'Anna di Vinadio 22-03-2020 08:40 -0.6 104 0 1013.1
Sant'Anna di Vinadio 22-03-2020 08:50 -0.7 104 0 1013.1
Sant'Anna di Vinadio 22-03-2020 09:00 -0.7 104 0 1013.2
Sant'Anna di Vinadio 22-03-2020 09:10 -0.5 104 0 1013.3
Sant'Anna di Vinadio 22-03-2020 09:20 -0.5 104 0 1013.3
Sant'Anna di Vinadio 22-03-2020 09:30 -0.4 104 0 1013.4
Sant'Anna di Vinadio 22-03-2020 09:40 -0.4 104 0 1013.5
Sant'Anna di Vinadio 22-03-2020 09:50 -0.6 104 0 1013.6
Sant'Anna di Vinadio 22-03-2020 10:00 -0.2 104 0 1013.6
Sant'Anna di Vinadio 22-03-2020 10:10 -0.2 104 0 1013.7
Sant'Anna di Vinadio 22-03-2020 10:20 -0.5 104 0 1013.7
Sant'Anna di Vinadio 22-03-2020 10:30 -0.5 104 0 1013.9
Sant'Anna di Vinadio 22-03-2020 10:40 -0.3 104 0 1013.9
Sant'Anna di Vinadio 22-03-2020 10:50 -0.2 104 0 1014
Sant'Anna di Vinadio 22-03-2020 11:00 0 104 0 1014.1
Sant'Anna di Vinadio 22-03-2020 11:10 0.6 104 0 1014.1
Sant'Anna di Vinadio 22-03-2020 11:20 0.5 100 0 1014.1
Sant'Anna di Vinadio 22-03-2020 11:30 0 104 0 1014.2
Sant'Anna di Vinadio 22-03-2020 11:40 -0.3 104 0 1014.4
Sant'Anna di Vinadio 22-03-2020 11:50 -0.3 104 0 1014.4
Sant'Anna di Vinadio 22-03-2020 12:00 -0.3 104 0 1014.5
Sant'Anna di Vinadio 22-03-2020 12:10 -0.3 104 0 1014.4
Sant'Anna di Vinadio 22-03-2020 12:20 -0.2 104 0 1014.4
Sant'Anna di Vinadio 22-03-2020 12:30 0 104 0 1014.5
Sant'Anna di Vinadio 22-03-2020 12:40 -0.1 104 0 1014.4
Sant'Anna di Vinadio 22-03-2020 12:50 -0.2 104 0 1014.5
Sant'Anna di Vinadio 22-03-2020 13:00 -0.3 104 0 1014.5
Sant'Anna di Vinadio 22-03-2020 13:10 -0.1 104 0 1014.5
Sant'Anna di Vinadio 22-03-2020 13:20 -0.2 104 0 1014.6
Sant'Anna di Vinadio 22-03-2020 13:30 -0.3 104 0 1014.6
Sant'Anna di Vinadio 22-03-2020 13:40 -0.2 104 0 1014.6
Sant'Anna di Vinadio 22-03-2020 13:50 -0.3 104 0 1014.7
Sant'Anna di Vinadio 22-03-2020 14:00 -0.3 104 0 1014.7
Sant'Anna di Vinadio 22-03-2020 14:10 -0.6 104 0 1014.7
Sant'Anna di Vinadio 22-03-2020 14:20 -0.5 104 0 1014.8
Sant'Anna di Vinadio 22-03-2020 14:30 -0.5 104 0 1014.7
Sant'Anna di Vinadio 22-03-2020 14:40 -0.6 104 0 1014.8
Sant'Anna di Vinadio 22-03-2020 14:50 -0.4 104 0 1014.8
Sant'Anna di Vinadio 22-03-2020 15:00 -0.4 104 0 1014.7
Sant'Anna di Vinadio 22-03-2020 15:10 -0.1 104 0 1014.7
Sant'Anna di Vinadio 22-03-2020 15:20 -0.2 104 0 1014.7
Sant'Anna di Vinadio 22-03-2020 15:30 -0.3 104 0 1014.7
Sant'Anna di Vinadio 22-03-2020 15:40 -0.4 104 0 1014.7
Sant'Anna di Vinadio 22-03-2020 15:50 -0.5 104 0 1014.7
Sant'Anna di Vinadio 22-03-2020 16:00 -0.7 104 0 1014.8
Sant'Anna di Vinadio 22-03-2020 16:10 -0.7 104 0 1014.8
Sant'Anna di Vinadio 22-03-2020 16:20 -0.6 104 0 1014.8
Sant'Anna di Vinadio 22-03-2020 16:30 -0.4 104 0 1014.9
Sant'Anna di Vinadio 22-03-2020 16:40 -0.4 104 0 1014.9
Sant'Anna di Vinadio 22-03-2020 16:50 -0.4 104 0 1014.9
Sant'Anna di Vinadio 22-03-2020 17:00 -0.4 104 0 1014.9
Sant'Anna di Vinadio 22-03-2020 17:10 -0.5 104 0 1014.9
Sant'Anna di Vinadio 22-03-2020 17:20 -0.7 104 0 1014.9
Sant'Anna di Vinadio 22-03-2020 17:30 -0.8 104 0 1014.9
Sant'Anna di Vinadio 22-03-2020 17:40 -0.6 104 0 1015
Sant'Anna di Vinadio 22-03-2020 17:50 -0.7 104 0 1015.1
Sant'Anna di Vinadio 22-03-2020 18:00 -0.7 104 0 1015.1
Sant'Anna di Vinadio 22-03-2020 18:10 -0.7 104 0 1015.2
Sant'Anna di Vinadio 22-03-2020 18:20 -0.8 104 0 1015.2
Sant'Anna di Vinadio 22-03-2020 18:30 -0.8 104 0 1015.3
Sant'Anna di Vinadio 22-03-2020 18:40 -0.8 104 0 1015.4
Sant'Anna di Vinadio 22-03-2020 18:50 -0.8 104 0 1015.4
Sant'Anna di Vinadio 22-03-2020 19:00 -0.8 104 0 1015.5
Sant'Anna di Vinadio 22-03-2020 19:10 -0.8 104 0 1015.5
Sant'Anna di Vinadio 22-03-2020 19:20 -0.7 104 0 1015.6
Sant'Anna di Vinadio 22-03-2020 19:30 -0.7 104 0 1015.6
Sant'Anna di Vinadio 22-03-2020 19:40 -1 104 0 1015.6
Sant'Anna di Vinadio 22-03-2020 19:50 -0.9 104 0 1015.7
Sant'Anna di Vinadio 22-03-2020 20:00 -0.9 104 0 1015.8
Sant'Anna di Vinadio 22-03-2020 20:10 -0.9 104 0 1015.8
Sant'Anna di Vinadio 22-03-2020 20:20 -0.9 104 0 1015.9
Sant'Anna di Vinadio 22-03-2020 20:30 -0.9 104 0 1015.9
Sant'Anna di Vinadio 22-03-2020 20:40 -0.9 104 0 1015.9
Sant'Anna di Vinadio 22-03-2020 20:50 -1 104 0 1016
Sant'Anna di Vinadio 22-03-2020 21:00 -1 104 0 1016
Sant'Anna di Vinadio 22-03-2020 21:10 -1 104 0 1016.1
Sant'Anna di Vinadio 22-03-2020 21:20 -1.1 104 0 1016.1
Sant'Anna di Vinadio 22-03-2020 21:30 -1.2 104 0 1016.2
Sant'Anna di Vinadio 22-03-2020 21:40 -1.2 104 0 1016.3
Sant'Anna di Vinadio 22-03-2020 21:50 -1.4 104 0 1016.3
Sant'Anna di Vinadio 22-03-2020 22:00 -1.4 104 0 1016.4
Sant'Anna di Vinadio 22-03-2020 22:10 -1.5 104 0 1016.4
Sant'Anna di Vinadio 22-03-2020 22:20 -1.5 104 0 1016.5
Sant'Anna di Vinadio 22-03-2020 22:30 -1.6 104 0 1016.5
Sant'Anna di Vinadio 22-03-2020 22:40 -1.7 104 0 1016.6
Sant'Anna di Vinadio 22-03-2020 22:50 -1.7 104 0 1016.6
Sant'Anna di Vinadio 22-03-2020 23:00 -1.7 104 0 1016.6
Sant'Anna di Vinadio 22-03-2020 23:10 -1.7 104 0 1016.6
Sant'Anna di Vinadio 22-03-2020 23:20 -1.7 104 0 1016.6
Sant'Anna di Vinadio 22-03-2020 23:30 -1.8 104 0 1016.7
Sant'Anna di Vinadio 22-03-2020 23:40 -1.7 104 0 1016.7
Sant'Anna di Vinadio 22-03-2020 23:50 -1.7 104 0 1016.7
Sant'Anna di Vinadio 23-03-2020 00:00 -1.7 104 0 1016.7
Sant'Anna di Vinadio 23-03-2020 00:10 -1.7 104 0 1016.8
Sant'Anna di Vinadio 23-03-2020 00:20 -1.7 104 0 1016.8
Sant'Anna di Vinadio 23-03-2020 00:30 -1.7 104 0 1016.9
Sant'Anna di Vinadio 23-03-2020 00:40 -1.6 104 0 1016.8
Sant'Anna di Vinadio 23-03-2020 00:50 -1.6 104 0 1016.8
Sant'Anna di Vinadio 23-03-2020 01:00 -1.6 104 0 1016.9
Sant'Anna di Vinadio 23-03-2020 01:10 -1.6 104 0 1016.9
Sant'Anna di Vinadio 23-03-2020 01:20 -1.7 104 0 1016.9
Sant'Anna di Vinadio 23-03-2020 01:30 -1.6 104 0 1016.9
Sant'Anna di Vinadio 23-03-2020 01:40 -1.6 104 0 1016.9
Sant'Anna di Vinadio 23-03-2020 01:50 -1.5 104 0 1016.8
Sant'Anna di Vinadio 23-03-2020 02:00 -1.5 104 0 1016.8
Sant'Anna di Vinadio 23-03-2020 02:10 -1.5 104 0 1016.8
Sant'Anna di Vinadio 23-03-2020 02:20 -1.5 104 0 1016.7
Sant'Anna di Vinadio 23-03-2020 02:30 -1.5 104 0 1016.7
Sant'Anna di Vinadio 23-03-2020 02:40 -1.5 104 0 1016.7
Sant'Anna di Vinadio 23-03-2020 02:50 -1.6 104 0 1016.7
Sant'Anna di Vinadio 23-03-2020 03:00 -1.6 104 0 1016.6
Sant'Anna di Vinadio 23-03-2020 03:10 -1.6 104 0 1016.5
Sant'Anna di Vinadio 23-03-2020 03:20 -1.5 104 0 1016.4
Sant'Anna di Vinadio 23-03-2020 03:30 -1.5 104 0 1016.4
Sant'Anna di Vinadio 23-03-2020 03:40 -1.5 104 0 1016.4
Sant'Anna di Vinadio 23-03-2020 03:50 -1.5 104 0 1016.3
Sant'Anna di Vinadio 23-03-2020 04:00 -1.5 104 0 1016.3
Sant'Anna di Vinadio 23-03-2020 04:10 -1.5 104 0 1016.2
Sant'Anna di Vinadio 23-03-2020 04:20 -1.5 104 0 1016.2
Sant'Anna di Vinadio 23-03-2020 04:30 -1.5 104 0 1016.2
Sant'Anna di Vinadio 23-03-2020 04:40 -1.6 104 0 1016.2
Sant'Anna di Vinadio 23-03-2020 04:50 -2.1 104 0 1016.3
Sant'Anna di Vinadio 23-03-2020 05:00 -2.5 104 0 1016.4
Sant'Anna di Vinadio 23-03-2020 05:10 -2.9 104 0 1016.5
Sant'Anna di Vinadio 23-03-2020 05:20 -3.2 104 0 1016.6
Sant'Anna di Vinadio 23-03-2020 05:30 -3.8 98 0 1016.7
Sant'Anna di Vinadio 23-03-2020 05:40 -4.1 96 0 1016.7
Sant'Anna di Vinadio 23-03-2020 05:50 -4.1 95 0 1016.7
Sant'Anna di Vinadio 23-03-2020 06:00 -4.1 95 0 1016.7
Sant'Anna di Vinadio 23-03-2020 06:10 -4 95 0 1016.7
Sant'Anna di Vinadio 23-03-2020 06:20 -4.1 93 0 1016.7
Sant'Anna di Vinadio 23-03-2020 06:30 -4.3 93 0 1016.8
Sant'Anna di Vinadio 23-03-2020 06:40 -4.7 92 0 1016.8
Sant'Anna di Vinadio 23-03-2020 06:50 -4.8 91 0 1016.8
Sant'Anna di Vinadio 23-03-2020 07:00 -4.7 91 0 1016.7
Sant'Anna di Vinadio 23-03-2020 07:10 -4.6 91 0 1016.8
Sant'Anna di Vinadio 23-03-2020 07:20 -4.6 91 0 1016.8
Sant'Anna di Vinadio 23-03-2020 07:30 -4.6 91 0 1016.8
Sant'Anna di Vinadio 23-03-2020 07:40 -4.6 91 0 1016.7
Sant'Anna di Vinadio 23-03-2020 07:50 -4.5 91 0 1016.7
Sant'Anna di Vinadio 23-03-2020 08:00 -4.5 91 0 1016.7
Sant'Anna di Vinadio 23-03-2020 08:10 -4.5 91 0 1016.7
Sant'Anna di Vinadio 23-03-2020 08:20 -4.4 91 0 1016.7
Sant'Anna di Vinadio 23-03-2020 08:30 -4.4 90 0 1016.7
Sant'Anna di Vinadio 23-03-2020 08:40 -4.2 90 0 1016.8
Sant'Anna di Vinadio 23-03-2020 08:50 -4.2 90 0 1016.9
Sant'Anna di Vinadio 23-03-2020 09:00 -4.2 90 0 1016.9
Sant'Anna di Vinadio 23-03-2020 09:10 -4.3 90 0 1017
Sant'Anna di Vinadio 23-03-2020 09:20 -4.2 90 0 1017.1
Sant'Anna di Vinadio 23-03-2020 09:30 -4.3 90 0 1017.1
Sant'Anna di Vinadio 23-03-2020 09:40 -4.3 89 0 1017.1
Sant'Anna di Vinadio 23-03-2020 09:50 -4.3 89 0 1017.2
Sant'Anna di Vinadio 23-03-2020 10:00 -4.3 89 0 1017.3
Sant'Anna di Vinadio 23-03-2020 10:10 -4.5 88 0 1017.3
Sant'Anna di Vinadio 23-03-2020 10:20 -4.7 88 0 1017.3
Sant'Anna di Vinadio 23-03-2020 10:30 -4.8 87 0 1017.3
Sant'Anna di Vinadio 23-03-2020 10:40 -4.3 88 0 1017.3
Sant'Anna di Vinadio 23-03-2020 10:50 -4.1 88 0 1017.3
Sant'Anna di Vinadio 23-03-2020 11:00 -3.9 88 0 1017.3
Sant'Anna di Vinadio 23-03-2020 11:10 -4 88 0 1017.3
Sant'Anna di Vinadio 23-03-2020 11:20 -4.3 87 0 1017.4
Sant'Anna di Vinadio 23-03-2020 11:30 -4.5 86 0 1017.5
Sant'Anna di Vinadio 23-03-2020 11:40 -4 87 0 1017.5
Sant'Anna di Vinadio 23-03-2020 11:50 -4 88 0 1017.4
Sant'Anna di Vinadio 23-03-2020 12:00 -4.3 85 0 1017.4
Sant'Anna di Vinadio 23-03-2020 12:10 -3.7 88 0 1017.4
Sant'Anna di Vinadio 23-03-2020 12:20 -3.1 88 0 1017.4
Sant'Anna di Vinadio 23-03-2020 12:30 -2.8 89 0.1 1017.4
Sant'Anna di Vinadio 23-03-2020 12:40 -2.6 89 0 1017.3
Sant'Anna di Vinadio 23-03-2020 12:50 -2 89 0 1017.3
Sant'Anna di Vinadio 23-03-2020 13:00 -2.2 88 0 1017.3
Sant'Anna di Vinadio 23-03-2020 13:10 -1.8 90 0 1017.3
Sant'Anna di Vinadio 23-03-2020 13:20 -1.7 90 0.1 1017.2
Sant'Anna di Vinadio 23-03-2020 13:30 -2.3 89 0 1017.2
Sant'Anna di Vinadio 23-03-2020 13:40 -2.2 89 0 1017.2
Sant'Anna di Vinadio 23-03-2020 13:50 -2.2 88 0 1017
Sant'Anna di Vinadio 23-03-2020 14:00 -2.5 88 0 1016.9
Sant'Anna di Vinadio 23-03-2020 14:10 -2.5 88 0 1016.8
Sant'Anna di Vinadio 23-03-2020 14:20 -2.7 87 0 1016.8
Sant'Anna di Vinadio 23-03-2020 14:30 -2.5 86 0 1016.6
Sant'Anna di Vinadio 23-03-2020 14:40 -1.4 90 0 1016.5
Sant'Anna di Vinadio 23-03-2020 14:50 -1.7 88 0 1016.4
Sant'Anna di Vinadio 23-03-2020 15:00 -1.8 87 0 1016.2
Sant'Anna di Vinadio 23-03-2020 15:10 -1.4 88 0 1016.2
Sant'Anna di Vinadio 23-03-2020 15:20 -0.8 88 0 1016.1
Sant'Anna di Vinadio 23-03-2020 15:30 -0.7 88 0 1016
Sant'Anna di Vinadio 23-03-2020 15:40 0.1 90 0 1016
Sant'Anna di Vinadio 23-03-2020 15:50 0.2 90 0 1015.9
Sant'Anna di Vinadio 23-03-2020 16:00 -0.1 88 0 1015.8
Sant'Anna di Vinadio 23-03-2020 16:10 0 88 0 1015.8
Sant'Anna di Vinadio 23-03-2020 16:20 0.5 90 0 1015.7
Sant'Anna di Vinadio 23-03-2020 16:30 0.3 89 0 1015.6
Sant'Anna di Vinadio 23-03-2020 16:40 0.4 90 0 1015.6
Sant'Anna di Vinadio 23-03-2020 16:50 0 90 0 1015.6
Sant'Anna di Vinadio 23-03-2020 17:00 -1.4 89 0 1015.5
Sant'Anna di Vinadio 23-03-2020 17:10 -3.5 90 0 1015.5
Sant'Anna di Vinadio 23-03-2020 17:20 -3.8 91 0 1015.5
Sant'Anna di Vinadio 23-03-2020 17:30 -4.1 90 0 1015.5
Sant'Anna di Vinadio 23-03-2020 17:40 -4.4 91 0 1015.5
Sant'Anna di Vinadio 23-03-2020 17:50 -4.8 90 0 1015.5
Sant'Anna di Vinadio 23-03-2020 18:00 -4.9 90 0 1015.6
Sant'Anna di Vinadio 23-03-2020 18:10 -5 90 0 1015.7
Sant'Anna di Vinadio 23-03-2020 18:20 -5.1 90 0 1015.7
Sant'Anna di Vinadio 23-03-2020 18:30 -5.4 90 0 1015.7
Sant'Anna di Vinadio 23-03-2020 18:40 -5.7 89 0 1015.8
Sant'Anna di Vinadio 23-03-2020 18:50 -5.4 89 0 1015.8
Sant'Anna di Vinadio 23-03-2020 19:00 -5.2 89 0 1015.7
Sant'Anna di Vinadio 23-03-2020 19:10 -5 87 0 1015.7
Sant'Anna di Vinadio 23-03-2020 19:20 -4.5 85 0 1015.8
Sant'Anna di Vinadio 23-03-2020 19:30 -3.4 79 0 1015.8
Sant'Anna di Vinadio 23-03-2020 19:40 -3 76 0 1015.9
Sant'Anna di Vinadio 23-03-2020 19:50 -3.3 74 0 1015.9
Sant'Anna di Vinadio 23-03-2020 20:00 -3.3 75 0 1016
Sant'Anna di Vinadio 23-03-2020 20:10 -3.2 76 0 1016
Sant'Anna di Vinadio 23-03-2020 20:20 -2.7 72 0 1016
Sant'Anna di Vinadio 23-03-2020 20:30 -3 74 0 1015.9
Sant'Anna di Vinadio 23-03-2020 20:40 -2.5 71 0 1015.9
Sant'Anna di Vinadio 23-03-2020 20:50 -2.6 73 0 1015.9
Sant'Anna di Vinadio 23-03-2020 21:00 -2.5 69 0 1015.9
Sant'Anna di Vinadio 23-03-2020 21:10 -2.7 71 0 1015.9
Sant'Anna di Vinadio 23-03-2020 21:20 -3.1 73 0 1016
Sant'Anna di Vinadio 23-03-2020 21:30 -3.2 74 0 1016.2
Sant'Anna di Vinadio 23-03-2020 21:40 -3.5 76 0 1016.3
Sant'Anna di Vinadio 23-03-2020 21:50 -3.9 76 0 1016.2
Sant'Anna di Vinadio 23-03-2020 22:00 -3.8 72 0 1016.3
Sant'Anna di Vinadio 23-03-2020 22:10 -4.2 74 0 1016.4
Sant'Anna di Vinadio 23-03-2020 22:20 -4.7 75 0 1016.4
Sant'Anna di Vinadio 23-03-2020 22:30 -4.9 75 0 1016.5
Sant'Anna di Vinadio 23-03-2020 22:40 -5.2 76 0 1016.5
Sant'Anna di Vinadio 23-03-2020 22:50 -5.4 75 0 1016.6
Sant'Anna di Vinadio 23-03-2020 23:00 -5.4 74 0 1016.6
Sant'Anna di Vinadio 23-03-2020 23:10 -5.1 73 0 1016.6
Sant'Anna di Vinadio 23-03-2020 23:20 -4.9 71 0 1016.5
Sant'Anna di Vinadio 23-03-2020 23:30 -4.8 69 0 1016.5
Sant'Anna di Vinadio 23-03-2020 23:40 -4.6 69 0 1016.5
Sant'Anna di Vinadio 23-03-2020 23:50 -4.6 68 0 1016.4
Sant'Anna di Vinadio 24-03-2020 00:00 -4.9 67 0 1016.2
Sant'Anna di Vinadio 24-03-2020 00:10 -5 68 0 1016.1
Sant'Anna di Vinadio 24-03-2020 00:20 -5.2 71 0 1016.1
Sant'Anna di Vinadio 24-03-2020 00:30 -5.7 72 0 1016.1
Sant'Anna di Vinadio 24-03-2020 00:40 -6.1 72 0 1016.1
Sant'Anna di Vinadio 24-03-2020 00:50 -6.3 73 0 1016.1
Sant'Anna di Vinadio 24-03-2020 01:00 -6.6 72 0 1016.2
Sant'Anna di Vinadio 24-03-2020 01:10 -6.7 72 0 1016.1
Sant'Anna di Vinadio 24-03-2020 01:20 -6.7 71 0 1016.1
Sant'Anna di Vinadio 24-03-2020 01:30 -7.1 73 0 1016.1
Sant'Anna di Vinadio 24-03-2020 01:40 -8 75 0 1016.1
Sant'Anna di Vinadio 24-03-2020 01:50 -9 77 0 1016
Sant'Anna di Vinadio 24-03-2020 02:00 -9 77 0 1015.9
Sant'Anna di Vinadio 24-03-2020 02:10 -9.2 78 0 1015.7
Sant'Anna di Vinadio 24-03-2020 02:20 -8.7 78 0 1015.6
Sant'Anna di Vinadio 24-03-2020 02:30 -8.6 78 0 1015.4
Sant'Anna di Vinadio 24-03-2020 02:40 -9.1 77 0 1015.3
Sant'Anna di Vinadio 24-03-2020 02:50 -9 78 0 1015.2
Sant'Anna di Vinadio 24-03-2020 03:00 -9 78 0 1015.2
Sant'Anna di Vinadio 24-03-2020 03:10 -9.2 78 0 1015.2
Sant'Anna di Vinadio 24-03-2020 03:20 -9.5 77 0 1015.2
Sant'Anna di Vinadio 24-03-2020 03:30 -9.6 79 0 1015.2
Sant'Anna di Vinadio 24-03-2020 03:40 -8.6 80 0 1015
Sant'Anna di Vinadio 24-03-2020 03:50 -7.9 80 0 1014.9
Sant'Anna di Vinadio 24-03-2020 04:00 -8.2 79 0 1014.9
Sant'Anna di Vinadio 24-03-2020 04:10 -9.2 78 0 1014.8
Sant'Anna di Vinadio 24-03-2020 04:20 -9.5 79 0 1014.9
Sant'Anna di Vinadio 24-03-2020 04:30 -9.3 79 0 1015
Sant'Anna di Vinadio 24-03-2020 04:40 -9.1 79 0 1014.8
Sant'Anna di Vinadio 24-03-2020 04:50 -9.2 79 0 1014.8
Sant'Anna di Vinadio 24-03-2020 05:00 -9.3 79 0 1014.7
Sant'Anna di Vinadio 24-03-2020 05:10 -9.3 79 0 1014.6
Sant'Anna di Vinadio 24-03-2020 05:20 -9.4 79 0 1014.4
Sant'Anna di Vinadio 24-03-2020 05:30 -9.5 79 0 1014.4
Sant'Anna di Vinadio 24-03-2020 05:40 -9.4 79 0 1014.4
Sant'Anna di Vinadio 24-03-2020 05:50 -9.1 79 0 1014.4
Sant'Anna di Vinadio 24-03-2020 06:00 -9.1 79 0 1014.4
Sant'Anna di Vinadio 24-03-2020 06:10 -8.9 80 0 1014.4
Sant'Anna di Vinadio 24-03-2020 06:20 -8.8 80 0 1014.4
Sant'Anna di Vinadio 24-03-2020 06:30 -8.8 80 0 1014.3
Sant'Anna di Vinadio 24-03-2020 06:40 -8.9 80 0 1014.4
Sant'Anna di Vinadio 24-03-2020 06:50 -8.8 80 0 1014.4
Sant'Anna di Vinadio 24-03-2020 07:00 -8.6 80 0 1014.4
Sant'Anna di Vinadio 24-03-2020 07:10 -8.6 79 0 1014.4
Sant'Anna di Vinadio 24-03-2020 07:20 -8.6 79 0 1014.5
Sant'Anna di Vinadio 24-03-2020 07:30 -8.6 79 0 1014.5
Sant'Anna di Vinadio 24-03-2020 07:40 -8.7 79 0 1014.6
Sant'Anna di Vinadio 24-03-2020 07:50 -8.7 79 0 1014.6
Sant'Anna di Vinadio 24-03-2020 08:00 -8.6 79 0 1014.6
Sant'Anna di Vinadio 24-03-2020 08:10 -8.6 79 0 1014.7
Sant'Anna di Vinadio 24-03-2020 08:20 -8.7 79 0 1014.7
Sant'Anna di Vinadio 24-03-2020 08:30 -8.8 79 0 1014.6
Sant'Anna di Vinadio 24-03-2020 08:40 -8.8 79 0 1014.7
Sant'Anna di Vinadio 24-03-2020 08:50 -8.8 79 0 1014.7
Sant'Anna di Vinadio 24-03-2020 09:00 -8.8 79 0 1014.7
Sant'Anna di Vinadio 24-03-2020 09:10 -8.8 79 0 1014.8
Sant'Anna di Vinadio 24-03-2020 09:20 -8.9 78 0 1014.8
Sant'Anna di Vinadio 24-03-2020 09:30 -8.9 78 0 1014.7
Sant'Anna di Vinadio 24-03-2020 09:40 -8.9 78 0 1014.8
Sant'Anna di Vinadio 24-03-2020 09:50 -8.9 78 0 1014.8
Sant'Anna di Vinadio 24-03-2020 10:00 -8.9 78 0 1014.9
Sant'Anna di Vinadio 24-03-2020 10:10 -8.9 78 0 1015
Sant'Anna di Vinadio 24-03-2020 10:20 -8.9 78 0 1015
Sant'Anna di Vinadio 24-03-2020 10:30 -8.9 78 0 1015
Sant'Anna di Vinadio 24-03-2020 10:40 -8.9 78 0 1015.1
Sant'Anna di Vinadio 24-03-2020 10:50 -8.9 78 0 1015.1
Sant'Anna di Vinadio 24-03-2020 11:00 -8.8 78 0 1015.2
Sant'Anna di Vinadio 24-03-2020 11:10 -8.7 78 0 1015.3
Sant'Anna di Vinadio 24-03-2020 11:20 -8.2 79 0 1015.2
Sant'Anna di Vinadio 24-03-2020 11:30 -8 79 0 1015.1
Sant'Anna di Vinadio 24-03-2020 11:40 -8 79 0 1015.1
Sant'Anna di Vinadio 24-03-2020 11:50 -8.1 78 0 1015.1
Sant'Anna di Vinadio 24-03-2020 12:00 -7.9 78 0 1015.2
Sant'Anna di Vinadio 24-03-2020 12:10 -7.9 78 0 1015.2
Sant'Anna di Vinadio 24-03-2020 12:20 -7.9 78 0 1015.2
Sant'Anna di Vinadio 24-03-2020 12:30 -7.9 78 0 1015.3
Sant'Anna di Vinadio 24-03-2020 12:40 -7.8 78 0 1015.2
Sant'Anna di Vinadio 24-03-2020 12:50 -7.6 78 0 1015.2
Sant'Anna di Vinadio 24-03-2020 13:00 -7.5 78 0 1015.2
Sant'Anna di Vinadio 24-03-2020 13:10 -7.5 78 0 1015.2
Sant'Anna di Vinadio 24-03-2020 13:20 -7.7 79 0 1015.2
Sant'Anna di Vinadio 24-03-2020 13:30 -7.7 78 0 1015.2
Sant'Anna di Vinadio 24-03-2020 13:40 -7.4 79 0 1015.2
Sant'Anna di Vinadio 24-03-2020 13:50 -7 79 0 1015.2
Sant'Anna di Vinadio 24-03-2020 14:00 -6.5 79 0 1015.2
Sant'Anna di Vinadio 24-03-2020 14:10 -6.4 79 0 1015.1
Sant'Anna di Vinadio 24-03-2020 14:20 -6.9 78 0 1015.1
Sant'Anna di Vinadio 24-03-2020 14:30 -6.8 78 0 1015
Sant'Anna di Vinadio 24-03-2020 14:40 -6.8 78 0 1014.9
Sant'Anna di Vinadio 24-03-2020 14:50 -6.7 78 0 1014.8
Sant'Anna di Vinadio 24-03-2020 15:00 -6.6 77 0 1014.8
Sant'Anna di Vinadio 24-03-2020 15:10 -6.6 77 0 1014.8
Sant'Anna di Vinadio 24-03-2020 15:20 -6.8 76 0 1014.7
Sant'Anna di Vinadio 24-03-2020 15:30 -7.1 76 0 1014.7
Sant'Anna di Vinadio 24-03-2020 15:40 -7.1 76 0 1014.7
Sant'Anna di Vinadio 24-03-2020 15:50 -7.4 76 0 1014.6
Sant'Anna di Vinadio 24-03-2020 16:00 -7.5 76 0 1014.5
Sant'Anna di Vinadio 24-03-2020 16:10 -7.6 76 0 1014.4
Sant'Anna di Vinadio 24-03-2020 16:20 -7.7 76 0 1014.6
Sant'Anna di Vinadio 24-03-2020 16:30 -7.8 76 0 1014.6
Sant'Anna di Vinadio 24-03-2020 16:40 -8.2 75 0 1014.6
Sant'Anna di Vinadio 24-03-2020 16:50 -8.6 74 0 1014.5
Sant'Anna di Vinadio 24-03-2020 17:00 -8.7 74 0 1014.5
Sant'Anna di Vinadio 24-03-2020 17:10 -8.7 74 0 1014.5
Sant'Anna di Vinadio 24-03-2020 17:20 -8.9 73 0 1014.5
Sant'Anna di Vinadio 24-03-2020 17:30 -8.9 74 0 1014.4
Sant'Anna di Vinadio 24-03-2020 17:40 -8.7 74 0 1014.3
Sant'Anna di Vinadio 24-03-2020 17:50 -8.7 74 0 1014.4
Sant'Anna di Vinadio 24-03-2020 18:00 -8.7 75 0 1014.4
Sant'Anna di Vinadio 24-03-2020 18:10 -8.8 75 0 1014.4
Sant'Anna di Vinadio 24-03-2020 18:20 -8.9 74 0 1014.5
Sant'Anna di Vinadio 24-03-2020 18:30 -9 73 0 1014.5
Sant'Anna di Vinadio 24-03-2020 18:40 -9.1 72 0 1014.5
Sant'Anna di Vinadio 24-03-2020 18:50 -9.4 71 0 1014.5
Sant'Anna di Vinadio 24-03-2020 19:00 -9.4 71 0 1014.5
Sant'Anna di Vinadio 24-03-2020 19:10 -9.4 71 0 1014.5
Sant'Anna di Vinadio 24-03-2020 19:20 -9.5 71 0 1014.5
Sant'Anna di Vinadio 24-03-2020 19:30 -9.5 70 0 1014.5
Sant'Anna di Vinadio 24-03-2020 19:40 -9.4 70 0 1014.5
Sant'Anna di Vinadio 24-03-2020 19:50 -9.4 69 0 1014.6
Sant'Anna di Vinadio 24-03-2020 20:00 -9.6 69 0 1014.6
Sant'Anna di Vinadio 24-03-2020 20:10 -9.4 69 0 1014.7
Sant'Anna di Vinadio 24-03-2020 20:20 -9.4 68 0 1014.7
Sant'Anna di Vinadio 24-03-2020 20:30 -9.5 67 0 1014.6
Sant'Anna di Vinadio 24-03-2020 20:40 -9.5 66 0 1014.4
Sant'Anna di Vinadio 24-03-2020 20:50 -9.5 65 0 1014.4
Sant'Anna di Vinadio 24-03-2020 21:00 -9.5 64 0 1014.3
Sant'Anna di Vinadio 24-03-2020 21:10 -9.5 65 0 1014.3
Sant'Anna di Vinadio 24-03-2020 21:20 -9.5 65 0 1014.3
Sant'Anna di Vinadio 24-03-2020 21:30 -9.8 65 0 1014.3
Sant'Anna di Vinadio 24-03-2020 21:40 -9.2 65 0 1014.2
Sant'Anna di Vinadio 24-03-2020 21:50 -9.1 59 0 1014.3
Sant'Anna di Vinadio 24-03-2020 22:00 -9.1 59 0 1014.2
Sant'Anna di Vinadio 24-03-2020 22:10 -9.1 59 0 1014.1
Sant'Anna di Vinadio 24-03-2020 22:20 -9.2 61 0 1014.1
Sant'Anna di Vinadio 24-03-2020 22:30 -9.1 60 0 1013.9
Sant'Anna di Vinadio 24-03-2020 22:40 -9.3 60 0 1013.9
Sant'Anna di Vinadio 24-03-2020 22:50 -9.6 62 0 1013.9
Sant'Anna di Vinadio 24-03-2020 23:00 -9.6 62 0 1013.8
Sant'Anna di Vinadio 24-03-2020 23:10 -9.6 62 0 1013.7
Sant'Anna di Vinadio 24-03-2020 23:20 -9.4 62 0 1013.6
Sant'Anna di Vinadio 24-03-2020 23:30 -9.4 59 0 1013.5
Sant'Anna di Vinadio 24-03-2020 23:40 -9.6 61 0 1013.5
Sant'Anna di Vinadio 24-03-2020 23:50 -9.6 60 0 1013.4
Sant'Anna di Vinadio 25-03-2020 00:00 -9.6 61 0 1013.4
Sant'Anna di Vinadio 25-03-2020 00:10 -9.6 61 0 1013.4
Sant'Anna di Vinadio 25-03-2020 00:20 -9.5 61 0 1013.4
Sant'Anna di Vinadio 25-03-2020 00:30 -9.5 61 0 1013.4
Sant'Anna di Vinadio 25-03-2020 00:40 -9.4 62 0 1013.4
Sant'Anna di Vinadio 25-03-2020 00:50 -9.1 62 0 1013.3
Sant'Anna di Vinadio 25-03-2020 01:00 -8.9 59 0 1013.3
Sant'Anna di Vinadio 25-03-2020 01:10 -8.9 58 0 1013.1
Sant'Anna di Vinadio 25-03-2020 01:20 -9 57 0 1013.1
Sant'Anna di Vinadio 25-03-2020 01:30 -8.9 58 0 1013
Sant'Anna di Vinadio 25-03-2020 01:40 -9 57 0 1012.9
Sant'Anna di Vinadio 25-03-2020 01:50 -9 57 0 1012.9
Sant'Anna di Vinadio 25-03-2020 02:00 -9 56 0 1012.8
Sant'Anna di Vinadio 25-03-2020 02:10 -9.1 56 0 1012.6
Sant'Anna di Vinadio 25-03-2020 02:20 -9.2 56 0 1012.5
Sant'Anna di Vinadio 25-03-2020 02:30 -9.2 56 0 1012.5
Sant'Anna di Vinadio 25-03-2020 02:40 -9.3 57 0 1012.4
Sant'Anna di Vinadio 25-03-2020 02:50 -9.4 58 0 1012.4
Sant'Anna di Vinadio 25-03-2020 03:00 -9.7 59 0 1012.4
Sant'Anna di Vinadio 25-03-2020 03:10 -9.7 60 0 1012.4
Sant'Anna di Vinadio 25-03-2020 03:20 -9.6 60 0 1012.3
Sant'Anna di Vinadio 25-03-2020 03:30 -9.5 60 0 1012.1
Sant'Anna di Vinadio 25-03-2020 03:40 -9.4 61 0 1012
Sant'Anna di Vinadio 25-03-2020 03:50 -9.5 62 0 1012
Sant'Anna di Vinadio 25-03-2020 04:00 -9.7 63 0 1011.9
Sant'Anna di Vinadio 25-03-2020 04:10 -9.7 64 0 1011.8
Sant'Anna di Vinadio 25-03-2020 04:20 -9.7 65 0 1011.7
Sant'Anna di Vinadio 25-03-2020 04:30 -9.7 66 0 1011.6
Sant'Anna di Vinadio 25-03-2020 04:40 -9.6 66 0 1011.5
Sant'Anna di Vinadio 25-03-2020 04:50 -9.6 66 0 1011.4
Sant'Anna di Vinadio 25-03-2020 05:00 -9.6 66 0 1011.4
Sant'Anna di Vinadio 25-03-2020 05:10 -9.6 67 0 1011.2
Sant'Anna di Vinadio 25-03-2020 05:20 -9.8 68 0 1011.1
Sant'Anna di Vinadio 25-03-2020 05:30 -9.9 68 0 1011.1
Sant'Anna di Vinadio 25-03-2020 05:40 -9.9 68 0 1011
Sant'Anna di Vinadio 25-03-2020 05:50 -9.9 67 0 1011
Sant'Anna di Vinadio 25-03-2020 06:00 -9.9 68 0 1011
Sant'Anna di Vinadio 25-03-2020 06:10 -10 68 0 1011
Sant'Anna di Vinadio 25-03-2020 06:20 -10.2 70 0 1010.9
Sant'Anna di Vinadio 25-03-2020 06:30 -10.2 70 0 1010.9
Sant'Anna di Vinadio 25-03-2020 06:40 -10.4 73 0 1010.7
Sant'Anna di Vinadio 25-03-2020 06:50 -11.1 74 0 1010.7
Sant'Anna di Vinadio 25-03-2020 07:00 -11 76 0 1010.6
Sant'Anna di Vinadio 25-03-2020 07:10 -10.9 76 0 1010.6
Sant'Anna di Vinadio 25-03-2020 07:20 -10.7 76 0 1010.6
Sant'Anna di Vinadio 25-03-2020 07:30 -10.7 76 0 1010.8
Sant'Anna di Vinadio 25-03-2020 07:40 -10.5 76 0 1010.8
Sant'Anna di Vinadio 25-03-2020 07:50 -10.4 75 0 1010.7
Sant'Anna di Vinadio 25-03-2020 08:00 -10.4 74 0 1010.6
Sant'Anna di Vinadio 25-03-2020 08:10 -10.4 73 0 1010.6
Sant'Anna di Vinadio 25-03-2020 08:20 -10.3 73 0 1010.5
Sant'Anna di Vinadio 25-03-2020 08:30 -10.2 72 0 1010.5
Sant'Anna di Vinadio 25-03-2020 08:40 -10.1 71 0 1010.6
Sant'Anna di Vinadio 25-03-2020 08:50 -9.8 71 0 1010.6
Sant'Anna di Vinadio 25-03-2020 09:00 -9.9 72 0 1010.7
Sant'Anna di Vinadio 25-03-2020 09:10 -9.9 72 0 1010.6
Sant'Anna di Vinadio 25-03-2020 09:20 -9.9 72 0 1010.6
Sant'Anna di Vinadio 25-03-2020 09:30 -9.8 73 0 1010.7
Sant'Anna di Vinadio 25-03-2020 09:40 -9.4 72 0 1010.6
Sant'Anna di Vinadio 25-03-2020 09:50 -9.4 71 0 1010.5
Sant'Anna di Vinadio 25-03-2020 10:00 -9.4 70 0 1010.5
Sant'Anna di Vinadio 25-03-2020 10:10 -9.2 70 0 1010.4
Sant'Anna di Vinadio 25-03-2020 10:20 -8.9 70 0 1010.3
Sant'Anna di Vinadio 25-03-2020 10:30 -9 71 0 1010.2
Sant'Anna di Vinadio 25-03-2020 10:40 -9.1 72 0 1010.1
Sant'Anna di Vinadio 25-03-2020 10:50 -9.1 73 0 1010.1
Sant'Anna di Vinadio 25-03-2020 11:00 -9.2 73 0 1010.1
Sant'Anna di Vinadio 25-03-2020 11:10 -9.1 74 0 1010.1
Sant'Anna di Vinadio 25-03-2020 11:20 -9.1 74 0 1010.1
Sant'Anna di Vinadio 25-03-2020 11:30 -9.1 74 0 1010.1
Sant'Anna di Vinadio 25-03-2020 11:40 -9.1 73 0 1010.1
Sant'Anna di Vinadio 25-03-2020 11:50 -8.7 73 0 1010
Sant'Anna di Vinadio 25-03-2020 12:00 -8.6 73 0 1010
Sant'Anna di Vinadio 25-03-2020 12:10 -8.5 72 0 1010
Sant'Anna di Vinadio 25-03-2020 12:20 -8.7 72 0 1010
Sant'Anna di Vinadio 25-03-2020 12:30 -8.6 72 0 1010
Sant'Anna di Vinadio 25-03-2020 12:40 -8.4 72 0 1009.9
Sant'Anna di Vinadio 25-03-2020 12:50 -8.1 71 0 1009.8
Sant'Anna di Vinadio 25-03-2020 13:00 -8.2 71 0 1009.8
Sant'Anna di Vinadio 25-03-2020 13:10 -8.4 72 0 1009.8
Sant'Anna di Vinadio 25-03-2020 13:20 -8.7 73 0 1009.7
Sant'Anna di Vinadio 25-03-2020 13:30 -8.6 72 0 1009.7
Sant'Anna di Vinadio 25-03-2020 13:40 -9 73 0 1009.6
Sant'Anna di Vinadio 25-03-2020 13:50 -9.4 73 0 1009.6
Sant'Anna di Vinadio 25-03-2020 14:00 -9.5 73 0 1009.5
Sant'Anna di Vinadio 25-03-2020 14:10 -9.2 72 0 1009.4
Sant'Anna di Vinadio 25-03-2020 14:20 -9.2 72 0 1009.4
Sant'Anna di Vinadio 25-03-2020 14:30 -9.8 74 0 1009.4
Sant'Anna di Vinadio 25-03-2020 14:40 -10.1 74 0 1009.4
Sant'Anna di Vinadio 25-03-2020 14:50 -10 74 0 1009.4
Sant'Anna di Vinadio 25-03-2020 15:00 -9.8 73 0 1009.3
Sant'Anna di Vinadio 25-03-2020 15:10 -9.7 73 0 1009.1
Sant'Anna di Vinadio 25-03-2020 15:20 -9.6 73 0 1009
Sant'Anna di Vinadio 25-03-2020 15:30 -9.7 73 0 1009
Sant'Anna di Vinadio 25-03-2020 15:40 -9.8 74 0 1008.9
Sant'Anna di Vinadio 25-03-2020 15:50 -9.8 74 0 1008.7
Sant'Anna di Vinadio 25-03-2020 16:00 -9.5 74 0 1008.7
Sant'Anna di Vinadio 25-03-2020 16:10 -9.5 74 0 1008.5
Sant'Anna di Vinadio 25-03-2020 16:20 -9.6 74 0 1008.5
Sant'Anna di Vinadio 25-03-2020 16:30 -9.6 75 0 1008.4
Sant'Anna di Vinadio 25-03-2020 16:40 -9.6 75 0 1008.4
Sant'Anna di Vinadio 25-03-2020 16:50 -9.6 75 0 1008.4
Sant'Anna di Vinadio 25-03-2020 17:00 -9.6 75 0 1008.5
Sant'Anna di Vinadio 25-03-2020 17:10 -9.7 75 0 1008.6
Sant'Anna di Vinadio 25-03-2020 17:20 -9.7 75 0 1008.6
Sant'Anna di Vinadio 25-03-2020 17:30 -9.8 75 0 1008.4
Sant'Anna di Vinadio 25-03-2020 17:40 -9.8 75 0 1008.3
Sant'Anna di Vinadio 25-03-2020 17:50 -9.8 75 0 1008.3
Sant'Anna di Vinadio 25-03-2020 18:00 -9.9 75 0 1008.2
Sant'Anna di Vinadio 25-03-2020 18:10 -9.9 75 0 1008.2
Sant'Anna di Vinadio 25-03-2020 18:20 -9.9 76 0 1008.2
Sant'Anna di Vinadio 25-03-2020 18:30 -9.9 76 0 1008.2
Sant'Anna di Vinadio 25-03-2020 18:40 -10 76 0 1008.4
Sant'Anna di Vinadio 25-03-2020 18:50 -10 76 0 1008.4
Sant'Anna di Vinadio 25-03-2020 19:00 -10.1 76 0 1008.3
Sant'Anna di Vinadio 25-03-2020 19:10 -10.1 76 0 1008.4
Sant'Anna di Vinadio 25-03-2020 19:20 -10 76 0 1008.4
Sant'Anna di Vinadio 25-03-2020 19:30 -10 76 0 1008.5
Sant'Anna di Vinadio 25-03-2020 19:40 -10 76 0 1008.9
Sant'Anna di Vinadio 25-03-2020 19:50 -10.1 76 0 1008.9
Sant'Anna di Vinadio 25-03-2020 20:00 -10.2 76 0 1008.9
Sant'Anna di Vinadio 25-03-2020 20:10 -10.1 76 0 1009
Sant'Anna di Vinadio 25-03-2020 20:20 -10.1 76 0 1009
Sant'Anna di Vinadio 25-03-2020 20:30 -10.1 75 0 1009.1
Sant'Anna di Vinadio 25-03-2020 20:40 -10.2 76 0 1009.2
Sant'Anna di Vinadio 25-03-2020 20:50 -10.1 76 0 1009.1
Sant'Anna di Vinadio 25-03-2020 21:00 -10.1 76 0 1009.1
Sant'Anna di Vinadio 25-03-2020 21:10 -10 76 0 1009
Sant'Anna di Vinadio 25-03-2020 21:20 -10.1 76 0 1009
Sant'Anna di Vinadio 25-03-2020 21:30 -10 76 0 1009
Sant'Anna di Vinadio 25-03-2020 21:40 -10 76 0 1009.2
Sant'Anna di Vinadio 25-03-2020 21:50 -10.2 76 0 1009.1
Sant'Anna di Vinadio 25-03-2020 22:00 -10.2 76 0 1009.1
Sant'Anna di Vinadio 25-03-2020 22:10 -10.3 75 0 1009.1
Sant'Anna di Vinadio 25-03-2020 22:20 -10.3 75 0 1008.9
Sant'Anna di Vinadio 25-03-2020 22:30 -10.3 76 0 1008.8
Sant'Anna di Vinadio 25-03-2020 22:40 -10.4 75 0 1008.7
Sant'Anna di Vinadio 25-03-2020 22:50 -10.5 75 0 1008.7
Sant'Anna di Vinadio 25-03-2020 23:00 -10.5 75 0 1008.5
Sant'Anna di Vinadio 25-03-2020 23:10 -10.5 75 0 1008.4
Sant'Anna di Vinadio 25-03-2020 23:20 -10.6 75 0 1008.3
Sant'Anna di Vinadio 25-03-2020 23:30 -10.7 75 0 1008.2
Sant'Anna di Vinadio 25-03-2020 23:40 -10.7 75 0 1008.1
Sant'Anna di Vinadio 25-03-2020 23:50 -10.8 75 0 1008.1
Sant'Anna di Vinadio 26-03-2020 00:00 -10.8 75 0 1008
Sant'Anna di Vinadio 26-03-2020 00:10 -10.9 75 0 1007.9
Sant'Anna di Vinadio 26-03-2020 00:20 -10.9 75 0 1007.7
Sant'Anna di Vinadio 26-03-2020 00:30 -10.8 75 0 1007.7
Sant'Anna di Vinadio 26-03-2020 00:40 -10.8 75 0 1007.7
Sant'Anna di Vinadio 26-03-2020 00:50 -10.8 75 0 1007.6
Sant'Anna di Vinadio 26-03-2020 01:00 -10.8 75 0 1007.5
Sant'Anna di Vinadio 26-03-2020 01:10 -10.8 75 0 1007.4
Sant'Anna di Vinadio 26-03-2020 01:20 -10.9 75 0 1007.5
Sant'Anna di Vinadio 26-03-2020 01:30 -10.9 75 0 1007.4
Sant'Anna di Vinadio 26-03-2020 01:40 -11.1 74 0 1007.3
Sant'Anna di Vinadio 26-03-2020 01:50 -11.1 75 0 1007.2
Sant'Anna di Vinadio 26-03-2020 02:00 -11.1 74 0 1007.1
Sant'Anna di Vinadio 26-03-2020 02:10 -11.1 74 0 1007
Sant'Anna di Vinadio 26-03-2020 02:20 -11.1 74 0 1006.9
Sant'Anna di Vinadio 26-03-2020 02:30 -11.1 74 0 1006.9
Sant'Anna di Vinadio 26-03-2020 02:40 -11.2 74 0 1006.7
Sant'Anna di Vinadio 26-03-2020 02:50 -11.3 74 0 1006.6
Sant'Anna di Vinadio 26-03-2020 03:00 -11.4 74 0 1006.5
Sant'Anna di Vinadio 26-03-2020 03:10 -11.4 74 0 1006.5
Sant'Anna di Vinadio 26-03-2020 03:20 -11.5 74 0 1006.4
Sant'Anna di Vinadio 26-03-2020 03:30 -11.5 74 0 1006.3
Sant'Anna di Vinadio 26-03-2020 03:40 -11.4 74 0 1006.1
Sant'Anna di Vinadio 26-03-2020 03:50 -11.5 74 0 1006.1
Sant'Anna di Vinadio 26-03-2020 04:00 -11.6 73 0 1006.1
Sant'Anna di Vinadio 26-03-2020 04:10 -11.7 73 0 1006
Sant'Anna di Vinadio 26-03-2020 04:20 -11.8 74 0 1005.9
Sant'Anna di Vinadio 26-03-2020 04:30 -11.7 74 0 1005.8
Sant'Anna di Vinadio 26-03-2020 04:40 -11.6 74 0 1005.7
Sant'Anna di Vinadio 26-03-2020 04:50 -11.4 74 0 1005.6
Sant'Anna di Vinadio 26-03-2020 05:00 -11.4 74 0 1005.5
Sant'Anna di Vinadio 26-03-2020 05:10 -11.7 74 0 1005.5
Sant'Anna di Vinadio 26-03-2020 05:20 -11.7 73 0 1005.4
Sant'Anna di Vinadio 26-03-2020 05:30 -11.8 73 0 1005.4
Sant'Anna di Vinadio 26-03-2020 05:40 -11.8 73 0 1005.4
Sant'Anna di Vinadio 26-03-2020 05:50 -11.8 73 0 1005.3
Sant'Anna di Vinadio 26-03-2020 06:00 -11.8 73 0 1005.4
Sant'Anna di Vinadio 26-03-2020 06:10 -11.8 73 0 1005.4
Sant'Anna di Vinadio 26-03-2020 06:20 -11.9 73 0 1005.4
Sant'Anna di Vinadio 26-03-2020 06:30 -11.9 73 0 1005.5
Sant'Anna di Vinadio 26-03-2020 06:40 -11.8 73 0 1005.5
Sant'Anna di Vinadio 26-03-2020 06:50 -11.9 73 0 1005.5
Sant'Anna di Vinadio 26-03-2020 07:00 -11.9 73 0 1005.5
Sant'Anna di Vinadio 26-03-2020 07:10 -12 73 0 1005.5
Sant'Anna di Vinadio 26-03-2020 07:20 -11.9 73 0 1005.5
Sant'Anna di Vinadio 26-03-2020 07:30 -11.8 73 0 1005.5
Sant'Anna di Vinadio 26-03-2020 07:40 -11.6 73 0 1005.5
Sant'Anna di Vinadio 26-03-2020 07:50 -11.6 73 0 1005.5
Sant'Anna di Vinadio 26-03-2020 08:00 -11.6 73 0 1005.5
Sant'Anna di Vinadio 26-03-2020 08:10 -11.5 73 0 1005.6
Sant'Anna di Vinadio 26-03-2020 08:20 -11.6 73 0 1005.6
Sant'Anna di Vinadio 26-03-2020 08:30 -11.6 73 0 1005.6
Sant'Anna di Vinadio 26-03-2020 08:40 -11.3 72 0 1005.5
Sant'Anna di Vinadio 26-03-2020 08:50 -11.1 72 0 1005.6
Sant'Anna di Vinadio 26-03-2020 09:00 -11 72 0 1005.6
Sant'Anna di Vinadio 26-03-2020 09:10 -10.9 73 0 1005.7
Sant'Anna di Vinadio 26-03-2020 09:20 -10.7 73 0 1005.7
Sant'Anna di Vinadio 26-03-2020 09:30 -10.2 73 0 1005.8
Sant'Anna di Vinadio 26-03-2020 09:40 -9.5 73 0 1005.8
Sant'Anna di Vinadio 26-03-2020 09:50 -9.6 72 0 1005.8
Sant'Anna di Vinadio 26-03-2020 10:00 -9.9 72 0 1005.9
Sant'Anna di Vinadio 26-03-2020 10:10 -9.9 72 0 1005.9
Sant'Anna di Vinadio 26-03-2020 10:20 -9.8 72 0 1005.9
Sant'Anna di Vinadio 26-03-2020 10:30 -9.9 72 0 1005.9
Sant'Anna di Vinadio 26-03-2020 10:40 -9.9 72 0 1005.9
Sant'Anna di Vinadio 26-03-2020 10:50 -9.9 72 0 1006
Sant'Anna di Vinadio 26-03-2020 11:00 -9.9 72 0 1006.1
Sant'Anna di Vinadio 26-03-2020 11:10 -9.7 73 0 1006.2
Sant'Anna di Vinadio 26-03-2020 11:20 -9.4 73 0 1006.3
Sant'Anna di Vinadio 26-03-2020 11:30 -9.3 72 0 1006.3
Sant'Anna di Vinadio 26-03-2020 11:40 -9.2 73 0 1006.4
Sant'Anna di Vinadio 26-03-2020 11:50 -9 73 0 1006.4
Sant'Anna di Vinadio 26-03-2020 12:00 -8.6 73 0 1006.4
Sant'Anna di Vinadio 26-03-2020 12:10 -8.6 72 0 1006.6
Sant'Anna di Vinadio 26-03-2020 12:20 -9 73 0 1006.7
Sant'Anna di Vinadio 26-03-2020 12:30 -9 74 0 1006.7
Sant'Anna di Vinadio 26-03-2020 12:40 -9.2 74 0 1006.7
Sant'Anna di Vinadio 26-03-2020 12:50 -9.2 74 0 1006.8
Sant'Anna di Vinadio 26-03-2020 13:00 -9.2 74 0 1006.8
Sant'Anna di Vinadio 26-03-2020 13:10 -9.2 74 0 1006.8
Sant'Anna di Vinadio 26-03-2020 13:20 -9.2 74 0 1006.8
Sant'Anna di Vinadio 26-03-2020 13:30 -9.1 74 0 1006.8
Sant'Anna di Vinadio 26-03-2020 13:40 -9 74 0 1006.8
Sant'Anna di Vinadio 26-03-2020 13:50 -9 74 0 1006.8
Sant'Anna di Vinadio 26-03-2020 14:00 -8.8 74 0 1006.6
Sant'Anna di Vinadio 26-03-2020 14:10 -8.8 74 0 1006.6
Sant'Anna di Vinadio 26-03-2020 14:20 -8.7 74 0 1006.7
Sant'Anna di Vinadio 26-03-2020 14:30 -8.7 74 0 1006.7
Sant'Anna di Vinadio 26-03-2020 14:40 -8.7 74 0 1006.8
Sant'Anna di Vinadio 26-03-2020 14:50 -8.7 74 0 1006.7
Sant'Anna di Vinadio 26-03-2020 15:00 -8.8 74 0 1006.8
Sant'Anna di Vinadio 26-03-2020 15:10 -8.8 75 0 1006.7
Sant'Anna di Vinadio 26-03-2020 15:20 -8.8 75 0 1006.7
Sant'Anna di Vinadio 26-03-2020 15:30 -8.8 76 0 1006.8
Sant'Anna di Vinadio 26-03-2020 15:40 -8.8 76 0 1006.8
Sant'Anna di Vinadio 26-03-2020 15:50 -8.8 76 0 1006.8
Sant'Anna di Vinadio 26-03-2020 16:00 -8.8 76 0 1006.8
Sant'Anna di Vinadio 26-03-2020 16:10 -8.7 77 0 1006.8
Sant'Anna di Vinadio 26-03-2020 16:20 -8.7 77 0 1006.8
Sant'Anna di Vinadio 26-03-2020 16:30 -8.7 77 0 1007
Sant'Anna di Vinadio 26-03-2020 16:40 -8.6 77 0 1007.2
Sant'Anna di Vinadio 26-03-2020 16:50 -8.5 78 0 1007.2
Sant'Anna di Vinadio 26-03-2020 17:00 -8.6 78 0 1007.1
Sant'Anna di Vinadio 26-03-2020 17:10 -8.6 78 0 1007.1
Sant'Anna di Vinadio 26-03-2020 17:20 -8.6 78 0 1007.1
Sant'Anna di Vinadio 26-03-2020 17:30 -8.7 78 0 1007.2
Sant'Anna di Vinadio 26-03-2020 17:40 -8.7 78 0 1007.4
Sant'Anna di Vinadio 26-03-2020 17:50 -8.7 78 0 1007.5
Sant'Anna di Vinadio 26-03-2020 18:00 -8.7 78 0 1007.5
Sant'Anna di Vinadio 26-03-2020 18:10 -8.7 79 0 1007.5
Sant'Anna di Vinadio 26-03-2020 18:20 -8.7 79 0 1007.4
Sant'Anna di Vinadio 26-03-2020 18:30 -8.7 79 0 1007.5
Sant'Anna di Vinadio 26-03-2020 18:40 -8.5 79 0 1007.6
Sant'Anna di Vinadio 26-03-2020 18:50 -8.3 79 0 1007.6
Sant'Anna di Vinadio 26-03-2020 19:00 -8.3 79 0 1007.7
Sant'Anna di Vinadio 26-03-2020 19:10 -8.1 80 0 1007.7
Sant'Anna di Vinadio 26-03-2020 19:20 -8 80 0 1007.6
Sant'Anna di Vinadio 26-03-2020 19:30 -8 80 0 1007.7
Sant'Anna di Vinadio 26-03-2020 19:40 -8 81 0 1007.9
Sant'Anna di Vinadio 26-03-2020 19:50 -8 81 0.1 1008.1
Sant'Anna di Vinadio 26-03-2020 20:00 -7.8 81 0 1008.1
Sant'Anna di Vinadio 26-03-2020 20:10 -7.8 81 0 1008.1
Sant'Anna di Vinadio 26-03-2020 20:20 -7.6 82 0 1008.2
Sant'Anna di Vinadio 26-03-2020 20:30 -7.6 82 0 1008.3
Sant'Anna di Vinadio 26-03-2020 20:40 -7.5 83 0 1008.3
Sant'Anna di Vinadio 26-03-2020 20:50 -7.2 83 0 1008.4
Sant'Anna di Vinadio 26-03-2020 21:00 -7.1 84 0 1008.4
Sant'Anna di Vinadio 26-03-2020 21:10 -7 84 0 1008.4
Sant'Anna di Vinadio 26-03-2020 21:20 -7 84 0 1008.5
Sant'Anna di Vinadio 26-03-2020 21:30 -7 84 0 1008.5
Sant'Anna di Vinadio 26-03-2020 21:40 -6.9 84 0 1008.5
Sant'Anna di Vinadio 26-03-2020 21:50 -6.8 84 0 1008.5
Sant'Anna di Vinadio 26-03-2020 22:00 -6.7 85 0 1008.5
Sant'Anna di Vinadio 26-03-2020 22:10 -6.7 85 0 1008.4
Sant'Anna di Vinadio 26-03-2020 22:20 -6.7 85 0 1008.5
Sant'Anna di Vinadio 26-03-2020 22:30 -6.6 85 0 1008.7
Sant'Anna di Vinadio 26-03-2020 22:40 -6.6 85 0 1008.6
Sant'Anna di Vinadio 26-03-2020 22:50 -6.6 85 0 1008.5
Sant'Anna di Vinadio 26-03-2020 23:00 -6.5 85 0.1 1008.4
Sant'Anna di Vinadio 26-03-2020 23:10 -6.5 85 0 1008.4
Sant'Anna di Vinadio 26-03-2020 23:20 -6.6 85 0 1008.4
Sant'Anna di Vinadio 26-03-2020 23:30 -6.5 85 0 1008.4
Sant'Anna di Vinadio 26-03-2020 23:40 -6.5 85 0 1008.5
Sant'Anna di Vinadio 26-03-2020 23:50 -6.6 85 0 1008.5
Sant'Anna di Vinadio 27-03-2020 00:00 -6.7 85 0 1008.5
Sant'Anna di Vinadio 27-03-2020 00:10 -6.7 85 0 1008.6
Sant'Anna di Vinadio 27-03-2020 00:20 -6.5 85 0 1008.6
Sant'Anna di Vinadio 27-03-2020 00:30 -6.5 85 0 1008.6
Sant'Anna di Vinadio 27-03-2020 00:40 -6.5 85 0 1008.6
Sant'Anna di Vinadio 27-03-2020 00:50 -6.5 85 0 1008.5
Sant'Anna di Vinadio 27-03-2020 01:00 -6.6 85 0 1008.5
Sant'Anna di Vinadio 27-03-2020 01:10 -6.7 85 0 1008.5
Sant'Anna di Vinadio 27-03-2020 01:20 -6.7 85 0 1008.5
Sant'Anna di Vinadio 27-03-2020 01:30 -6.6 85 0 1008.6
Sant'Anna di Vinadio 27-03-2020 01:40 -6.6 85 0 1008.6
Sant'Anna di Vinadio 27-03-2020 01:50 -6.6 85 0 1008.4
Sant'Anna di Vinadio 27-03-2020 02:00 -6.6 85 0 1008.5
Sant'Anna di Vinadio 27-03-2020 02:10 -6.4 85 0 1008.5
Sant'Anna di Vinadio 27-03-2020 02:20 -6.4 85 0 1008.4
Sant'Anna di Vinadio 27-03-2020 02:30 -6.3 85 0 1008.4
Sant'Anna di Vinadio 27-03-2020 02:40 -6.2 86 0 1008.4
Sant'Anna di Vinadio 27-03-2020 02:50 -6.1 86 0 1008.4
Sant'Anna di Vinadio 27-03-2020 03:00 -6.1 86 0 1008.5
Sant'Anna di Vinadio 27-03-2020 03:10 -6.2 86 0 1008.5
Sant'Anna di Vinadio 27-03-2020 03:20 -6.2 86 0 1008.5
Sant'Anna di Vinadio 27-03-2020 03:30 -6.2 86 0 1008.5
Sant'Anna di Vinadio 27-03-2020 03:40 -6.1 86 0 1008.5
Sant'Anna di Vinadio 27-03-2020 03:50 -6.2 86 0 1008.4
Sant'Anna di Vinadio 27-03-2020 04:00 -6.2 86 0 1008.4
Sant'Anna di Vinadio 27-03-2020 04:10 -6.1 86 0 1008.5
Sant'Anna di Vinadio 27-03-2020 04:20 -6 86 0 1008.5
Sant'Anna di Vinadio 27-03-2020 04:30 -5.9 87 0 1008.5
Sant'Anna di Vinadio 27-03-2020 04:40 -5.8 87 0 1008.6
Sant'Anna di Vinadio 27-03-2020 04:50 -5.7 87 0 1008.6
Sant'Anna di Vinadio 27-03-2020 05:00 -5.5 88 0 1008.6
Sant'Anna di Vinadio 27-03-2020 05:10 -5.5 88 0 1008.6
Sant'Anna di Vinadio 27-03-2020 05:20 -5.5 88 0 1008.5
Sant'Anna di Vinadio 27-03-2020 05:30 -5.5 88 0 1008.6
Sant'Anna di Vinadio 27-03-2020 05:40 -5.6 88 0 1008.6
Sant'Anna di Vinadio 27-03-2020 05:50 -5.6 88 0 1008.6
Sant'Anna di Vinadio 27-03-2020 06:00 -5.5 88 0 1008.7
Sant'Anna di Vinadio 27-03-2020 06:10 -5.3 89 0 1009
Sant'Anna di Vinadio 27-03-2020 06:20 -5.2 89 0 1009
Sant'Anna di Vinadio 27-03-2020 06:30 -5.1 89 0 1009.2
Sant'Anna di Vinadio 27-03-2020 06:40 -5.1 89 0 1009.3
Sant'Anna di Vinadio 27-03-2020 06:50 -5 90 0 1009.4
Sant'Anna di Vinadio 27-03-2020 07:00 -5 90 0 1009.4
Sant'Anna di Vinadio 27-03-2020 07:10 -5 90 0 1009.5
Sant'Anna di Vinadio 27-03-2020 07:20 -5 90 0 1009.7
Sant'Anna di Vinadio 27-03-2020 07:30 -4.9 90 0 1009.7
Sant'Anna di Vinadio 27-03-2020 07:40 -4.9 90 0.1 1009.7
Sant'Anna di Vinadio 27-03-2020 07:50 -4.9 90 0 1009.8
Sant'Anna di Vinadio 27-03-2020 08:00 -4.9 90 0 1009.8
Sant'Anna di Vinadio 27-03-2020 08:10 -4.9 90 0 1009.8
Sant'Anna di Vinadio 27-03-2020 08:20 -4.8 90 0 1009.9
Sant'Anna di Vinadio 27-03-2020 08:30 -4.7 90 0 1010
Sant'Anna di Vinadio 27-03-2020 08:40 -4.6 90 0 1010
Sant'Anna di Vinadio 27-03-2020 08:50 -4.4 90 0 1010
Sant'Anna di Vinadio 27-03-2020 09:00 -4.4 90 0 1010.1
Sant'Anna di Vinadio 27-03-2020 09:10 -4.6 90 0 1010.2
Sant'Anna di Vinadio 27-03-2020 09:20 -4.5 90 0 1010.2
Sant'Anna di Vinadio 27-03-2020 09:30 -4.3 91 0.1 1010.2
Sant'Anna di Vinadio 27-03-2020 09:40 -4.3 91 0 1010.3
Sant'Anna di Vinadio 27-03-2020 09:50 -4.2 90 0.1 1010.6
Sant'Anna di Vinadio 27-03-2020 10:00 -4.2 91 0 1010.6
Sant'Anna di Vinadio 27-03-2020 10:10 -3.7 91 0.1 1010.7
Sant'Anna di Vinadio 27-03-2020 10:20 -3.6 91 0 1010.7
Sant'Anna di Vinadio 27-03-2020 10:30 -4 91 0 1010.7
Sant'Anna di Vinadio 27-03-2020 10:40 -4 91 0 1010.7
Sant'Anna di Vinadio 27-03-2020 10:50 -4 91 0 1010.8
Sant'Anna di Vinadio 27-03-2020 11:00 -3.9 91 0 1010.9
Sant'Anna di Vinadio 27-03-2020 11:10 -3.5 91 0 1010.9
Sant'Anna di Vinadio 27-03-2020 11:20 -3.1 91 0 1011
Sant'Anna di Vinadio 27-03-2020 11:30 -3.2 91 0.1 1010.9
Sant'Anna di Vinadio 27-03-2020 11:40 -3.3 91 0 1010.9
Sant'Anna di Vinadio 27-03-2020 11:50 -3.4 92 0 1011
Sant'Anna di Vinadio 27-03-2020 12:00 -3.1 92 0 1011
Sant'Anna di Vinadio 27-03-2020 12:10 -2.9 92 0 1011
Sant'Anna di Vinadio 27-03-2020 12:20 -2.8 92 0 1011.1
Sant'Anna di Vinadio 27-03-2020 12:30 -2.9 92 0 1011
Sant'Anna di Vinadio 27-03-2020 12:40 -3.2 93 0 1011
Sant'Anna di Vinadio 27-03-2020 12:50 -3.2 93 0 1011
Sant'Anna di Vinadio 27-03-2020 13:00 -3.2 93 0 1011
Sant'Anna di Vinadio 27-03-2020 13:10 -3.2 93 0 1011
Sant'Anna di Vinadio 27-03-2020 13:20 -3.3 93 0 1011.1
Sant'Anna di Vinadio 27-03-2020 13:30 -3.5 92 0 1011.2
Sant'Anna di Vinadio 27-03-2020 13:40 -3.7 92 0 1011.2
Sant'Anna di Vinadio 27-03-2020 13:50 -3.7 92 0 1011.2
Sant'Anna di Vinadio 27-03-2020 14:00 -3.7 92 0 1011.2
Sant'Anna di Vinadio 27-03-2020 14:10 -3.5 92 0 1011.2
Sant'Anna di Vinadio 27-03-2020 14:20 -3.4 92 0 1011.3
Sant'Anna di Vinadio 27-03-2020 14:30 -3.4 92 0 1011.3
Sant'Anna di Vinadio 27-03-2020 14:40 -3.4 92 0 1011.3
Sant'Anna di Vinadio 27-03-2020 14:50 -3.4 92 0 1011.4
Sant'Anna di Vinadio 27-03-2020 15:00 -3.4 93 0 1011.4
Sant'Anna di Vinadio 27-03-2020 15:10 -3.5 93 0 1011.4
Sant'Anna di Vinadio 27-03-2020 15:20 -3.5 93 0 1011.3
Sant'Anna di Vinadio 27-03-2020 15:30 -3.5 93 0 1011.3
Sant'Anna di Vinadio 27-03-2020 15:40 -3.5 93 0 1011.3
Sant'Anna di Vinadio 27-03-2020 15:50 -3.5 93 0 1011.4
Sant'Anna di Vinadio 27-03-2020 16:00 -3.6 93 0 1011.4
Sant'Anna di Vinadio 27-03-2020 16:10 -3.6 94 0 1011.5
Sant'Anna di Vinadio 27-03-2020 16:20 -3.5 94 0 1011.5
Sant'Anna di Vinadio 27-03-2020 16:30 -3.5 94 0 1011.5
Sant'Anna di Vinadio 27-03-2020 16:40 -3.4 94 0 1011.5
Sant'Anna di Vinadio 27-03-2020 16:50 -3.4 94 0 1011.5
Sant'Anna di Vinadio 27-03-2020 17:00 -3.3 95 0 1011.6
Sant'Anna di Vinadio 27-03-2020 17:10 -3.3 95 0 1011.8
Sant'Anna di Vinadio 27-03-2020 17:20 -3.3 95 0 1011.8
Sant'Anna di Vinadio 27-03-2020 17:30 -3.5 95 0 1011.8
Sant'Anna di Vinadio 27-03-2020 17:40 -3.5 95 0 1011.9
Sant'Anna di Vinadio 27-03-2020 17:50 -3.7 95 0 1012
Sant'Anna di Vinadio 27-03-2020 18:00 -3.7 95 0 1012.1
Sant'Anna di Vinadio 27-03-2020 18:10 -3.5 95 0 1012.2
Sant'Anna di Vinadio 27-03-2020 18:20 -3.4 95 0 1012.2
Sant'Anna di Vinadio 27-03-2020 18:30 -3.4 95 0 1012.2
Sant'Anna di Vinadio 27-03-2020 18:40 -3.3 96 0 1012.3
Sant'Anna di Vinadio 27-03-2020 18:50 -3.3 96 0 1012.3
Sant'Anna di Vinadio 27-03-2020 19:00 -3.4 96 0 1012.4
Sant'Anna di Vinadio 27-03-2020 19:10 -3.5 96 0 1012.5
Sant'Anna di Vinadio 27-03-2020 19:20 -3.6 96 0 1012.6
Sant'Anna di Vinadio 27-03-2020 19:30 -3.5 96 0 1012.7
Sant'Anna di Vinadio 27-03-2020 19:40 -3.3 97 0 1012.8
Sant'Anna di Vinadio 27-03-2020 19:50 -3.2 97 0 1012.8
Sant'Anna di Vinadio 27-03-2020 20:00 -3.2 97 0 1012.9
Sant'Anna di Vinadio 27-03-2020 20:10 -3.3 97 0 1013
Sant'Anna di Vinadio 27-03-2020 20:20 -3.4 97 0 1013
Sant'Anna di Vinadio 27-03-2020 20:30 -3.5 97 0 1013
Sant'Anna di Vinadio 27-03-2020 20:40 -3.4 97 0 1013.1
Sant'Anna di Vinadio 27-03-2020 20:50 -3.2 97 0 1013.1
Sant'Anna di Vinadio 27-03-2020 21:00 -3.1 97 0 1013
Sant'Anna di Vinadio 27-03-2020 21:10 -3 98 0 1013.1
Sant'Anna di Vinadio 27-03-2020 21:20 -2.9 98 0 1013.1
Sant'Anna di Vinadio 27-03-2020 21:30 -2.9 98 0 1013.1
Sant'Anna di Vinadio 27-03-2020 21:40 -2.9 99 0 1013.1
Sant'Anna di Vinadio 27-03-2020 21:50 -2.9 99 0 1013.2
Sant'Anna di Vinadio 27-03-2020 22:00 -3 98 0 1013.3
Sant'Anna di Vinadio 27-03-2020 22:10 -2.9 99 0.1 1013.4
Sant'Anna di Vinadio 27-03-2020 22:20 -2.9 99 0 1013.5
Sant'Anna di Vinadio 27-03-2020 22:30 -2.9 99 0 1013.5
Sant'Anna di Vinadio 27-03-2020 22:40 -2.9 99 0 1013.5
Sant'Anna di Vinadio 27-03-2020 22:50 -2.9 99 0 1013.5
Sant'Anna di Vinadio 27-03-2020 23:00 -2.9 99 0 1013.6
Sant'Anna di Vinadio 27-03-2020 23:10 -2.8 99 0 1013.6
Sant'Anna di Vinadio 27-03-2020 23:20 -2.8 99 0.1 1013.6
Sant'Anna di Vinadio 27-03-2020 23:30 -2.7 99 0 1013.6
Sant'Anna di Vinadio 27-03-2020 23:40 -2.7 100 0 1013.6
Sant'Anna di Vinadio 27-03-2020 23:50 -2.6 100 0 1013.5
Sant'Anna di Vinadio 28-03-2020 00:00 -2.6 100 0 1013.5
Sant'Anna di Vinadio 28-03-2020 00:10 -2.7 100 0 1013.5
Sant'Anna di Vinadio 28-03-2020 00:20 -2.7 100 0.1 1013.4
Sant'Anna di Vinadio 28-03-2020 00:30 -2.8 104 0 1013.4
Sant'Anna di Vinadio 28-03-2020 00:40 -2.7 104 0 1013.3
Sant'Anna di Vinadio 28-03-2020 00:50 -2.7 104 0 1013.3
Sant'Anna di Vinadio 28-03-2020 01:00 -2.7 104 0 1013.3
Sant'Anna di Vinadio 28-03-2020 01:10 -2.8 104 0 1013.3
Sant'Anna di Vinadio 28-03-2020 01:20 -2.7 104 0.1 1013.3
Sant'Anna di Vinadio 28-03-2020 01:30 -2.7 104 0 1013.3
Sant'Anna di Vinadio 28-03-2020 01:40 -2.7 104 0 1013.3
Sant'Anna di Vinadio 28-03-2020 01:50 -2.7 104 0 1013.3
Sant'Anna di Vinadio 28-03-2020 02:00 -2.7 104 0 1013.2
Sant'Anna di Vinadio 28-03-2020 02:10 -2.7 104 0 1013.2
Sant'Anna di Vinadio 28-03-2020 02:20 -2.7 104 0 1013.2
Sant'Anna di Vinadio 28-03-2020 02:30 -2.7 104 0 1013.2
Sant'Anna di Vinadio 28-03-2020 02:40 -2.7 104 0 1013.2
Sant'Anna di Vinadio 28-03-2020 02:50 -2.8 104 0 1013.1
Sant'Anna di Vinadio 28-03-2020 03:00 -2.8 104 0 1013
Sant'Anna di Vinadio 28-03-2020 03:10 -2.8 104 0 1012.9
Sant'Anna di Vinadio 28-03-2020 03:20 -2.8 104 0 1012.9
Sant'Anna di Vinadio 28-03-2020 03:30 -2.8 104 0 1012.8
Sant'Anna di Vinadio 28-03-2020 03:40 -2.8 104 0 1012.8
Sant'Anna di Vinadio 28-03-2020 03:50 -2.8 104 0 1012.8
Sant'Anna di Vinadio 28-03-2020 04:00 -2.8 104 0 1012.7
Sant'Anna di Vinadio 28-03-2020 04:10 -2.8 104 0 1012.7
Sant'Anna di Vinadio 28-03-2020 04:20 -2.9 104 0 1012.7
Sant'Anna di Vinadio 28-03-2020 04:30 -3 100 0 1012.7
Sant'Anna di Vinadio 28-03-2020 04:40 -3 100 0 1012.7
Sant'Anna di Vinadio 28-03-2020 04:50 -2.8 100 0 1012.7
Sant'Anna di Vinadio 28-03-2020 05:00 -2.8 104 0 1012.7
Sant'Anna di Vinadio 28-03-2020 05:10 -2.7 104 0 1012.7
Sant'Anna di Vinadio 28-03-2020 05:20 -2.6 104 0 1012.7
Sant'Anna di Vinadio 28-03-2020 05:30 -2.6 104 0 1012.7
Sant'Anna di Vinadio 28-03-2020 05:40 -2.6 104 0 1012.7
Sant'Anna di Vinadio 28-03-2020 05:50 -2.6 104 0 1012.7
Sant'Anna di Vinadio 28-03-2020 06:00 -2.6 104 0 1012.8
Sant'Anna di Vinadio 28-03-2020 06:10 -2.5 104 0 1012.7
Sant'Anna di Vinadio 28-03-2020 06:20 -2.5 104 0 1012.8
Sant'Anna di Vinadio 28-03-2020 06:30 -2.3 104 0 1012.8
Sant'Anna di Vinadio 28-03-2020 06:40 -2.3 104 0 1012.9
Sant'Anna di Vinadio 28-03-2020 06:50 -2.3 104 0 1012.9
Sant'Anna di Vinadio 28-03-2020 07:00 -2.3 104 0 1013.1
Sant'Anna di Vinadio 28-03-2020 07:10 -2.2 104 0 1013.1
Sant'Anna di Vinadio 28-03-2020 07:20 -2.1 104 0 1013.1
Sant'Anna di Vinadio 28-03-2020 07:30 -2 104 0 1013.1
Sant'Anna di Vinadio 28-03-2020 07:40 -1.9 104 0 1013.1
Sant'Anna di Vinadio 28-03-2020 07:50 -1.8 104 0 1013.1
Sant'Anna di Vinadio 28-03-2020 08:00 -1.6 104 0 1013.1
Sant'Anna di Vinadio 28-03-2020 08:10 -1.4 104 0 1013.1
Sant'Anna di Vinadio 28-03-2020 08:20 -1.4 104 0 1013.1
Sant'Anna di Vinadio 28-03-2020 08:30 -1.2 104 0 1013.1
Sant'Anna di Vinadio 28-03-2020 08:40 -1.1 104 0 1013.2
Sant'Anna di Vinadio 28-03-2020 08:50 -0.9 104 0 1013.2
Sant'Anna di Vinadio 28-03-2020 09:00 -0.6 104 0.1 1013.2
Sant'Anna di Vinadio 28-03-2020 09:10 -0.3 104 0 1013.2
Sant'Anna di Vinadio 28-03-2020 09:20 0 104 0 1013.2
Sant'Anna di Vinadio 28-03-2020 09:30 0.2 104 0 1013.2
Sant'Anna di Vinadio 28-03-2020 09:40 0.2 104 0 1013.3
Sant'Anna di Vinadio 28-03-2020 09:50 0.4 104 0 1013.3
Sant'Anna di Vinadio 28-03-2020 10:00 0.7 104 0 1013.2
Sant'Anna di Vinadio 28-03-2020 10:10 1 104 0.1 1013.2
Sant'Anna di Vinadio 28-03-2020 10:20 1.3 96 0 1013.2
Sant'Anna di Vinadio 28-03-2020 10:30 1.5 92 0 1013.2
Sant'Anna di Vinadio 28-03-2020 10:40 1.4 94 0 1013.2
Sant'Anna di Vinadio 28-03-2020 10:50 1 98 0 1013.2
Sant'Anna di Vinadio 28-03-2020 11:00 0.9 98 0 1013.2
Sant'Anna di Vinadio 28-03-2020 11:10 0.9 99 0 1013.2
Sant'Anna di Vinadio 28-03-2020 11:20 0.9 99 0 1013.2
Sant'Anna di Vinadio 28-03-2020 11:30 1.3 99 0 1013.2
Sant'Anna di Vinadio 28-03-2020 11:40 1.6 95 0 1013.2
Sant'Anna di Vinadio 28-03-2020 11:50 1.6 93 0.1 1013.2
Sant'Anna di Vinadio 28-03-2020 12:00 1.7 92 0 1013.1
Sant'Anna di Vinadio 28-03-2020 12:10 1.8 93 0 1013.2
Sant'Anna di Vinadio 28-03-2020 12:20 1.9 93 0 1013.2
Sant'Anna di Vinadio 28-03-2020 12:30 2 92 0 1013.2
Sant'Anna di Vinadio 28-03-2020 12:40 2.2 89 0 1013.2
Sant'Anna di Vinadio 28-03-2020 12:50 2.4 87 0 1013.2
Sant'Anna di Vinadio 28-03-2020 13:00 2.7 81 0 1013.2
Sant'Anna di Vinadio 28-03-2020 13:10 3.3 77 0.1 1013.1
Sant'Anna di Vinadio 28-03-2020 13:20 3.1 77 0 1013.1
Sant'Anna di Vinadio 28-03-2020 13:30 3.2 78 0 1013
Sant'Anna di Vinadio 28-03-2020 13:40 3.2 77 0 1013
Sant'Anna di Vinadio 28-03-2020 13:50 3.5 78 0 1012.9
Sant'Anna di Vinadio 28-03-2020 14:00 3.4 74 0 1012.9
Sant'Anna di Vinadio 28-03-2020 14:10 3.5 70 0 1012.9
Sant'Anna di Vinadio 28-03-2020 14:20 3.8 62 0 1012.8
Sant'Anna di Vinadio 28-03-2020 14:30 3.9 56 0 1012.8
Sant'Anna di Vinadio 28-03-2020 14:40 3.9 54 0 1012.7
Sant'Anna di Vinadio 28-03-2020 14:50 4.3 54 0 1012.8
Sant'Anna di Vinadio 28-03-2020 15:00 4.4 52 0 1012.7
Sant'Anna di Vinadio 28-03-2020 15:10 4.3 51 0 1012.6
Sant'Anna di Vinadio 28-03-2020 15:20 4.2 51 0 1012.5
Sant'Anna di Vinadio 28-03-2020 15:30 4.2 52 0 1012.5
Sant'Anna di Vinadio 28-03-2020 15:40 3.7 53 0 1012.5
Sant'Anna di Vinadio 28-03-2020 15:50 3.5 53 0 1012.5
Sant'Anna di Vinadio 28-03-2020 16:00 3.7 53 0 1012.6
Sant'Anna di Vinadio 28-03-2020 16:10 3.7 54 0 1012.5
Sant'Anna di Vinadio 28-03-2020 16:20 3.3 55 0 1012.5
Sant'Anna di Vinadio 28-03-2020 16:30 3.4 54 0 1012.5
Sant'Anna di Vinadio 28-03-2020 16:40 3.4 55 0 1012.5
Sant'Anna di Vinadio 28-03-2020 16:50 3 56 0 1012.4
Sant'Anna di Vinadio 28-03-2020 17:00 2.8 56 0 1012.4
Sant'Anna di Vinadio 28-03-2020 17:10 2.8 57 0 1012.4
Sant'Anna di Vinadio 28-03-2020 17:20 2.7 57 0 1012.4
Sant'Anna di Vinadio 28-03-2020 17:30 2.7 57 0 1012.5
Sant'Anna di Vinadio 28-03-2020 17:40 2.7 58 0 1012.5
Sant'Anna di Vinadio 28-03-2020 17:50 2.6 58 0 1012.5
Sant'Anna di Vinadio 28-03-2020 18:00 2.5 59 0 1012.6
Sant'Anna di Vinadio 28-03-2020 18:10 2.3 59 0 1012.5
Sant'Anna di Vinadio 28-03-2020 18:20 2.2 60 0 1012.6
Sant'Anna di Vinadio 28-03-2020 18:30 2.1 60 0 1012.6
Sant'Anna di Vinadio 28-03-2020 18:40 2 60 0 1012.6
Sant'Anna di Vinadio 28-03-2020 18:50 2 61 0 1012.7
Sant'Anna di Vinadio 28-03-2020 19:00 2 61 0 1012.7
Sant'Anna di Vinadio 28-03-2020 19:10 1.9 60 0 1012.8
Sant'Anna di Vinadio 28-03-2020 19:20 1.8 61 0 1012.8
Sant'Anna di Vinadio 28-03-2020 19:30 1.7 60 0 1012.9
Sant'Anna di Vinadio 28-03-2020 19:40 1.5 61 0 1012.9
Sant'Anna di Vinadio 28-03-2020 19:50 1.4 62 0 1013
Sant'Anna di Vinadio 28-03-2020 20:00 1.3 64 0 1013
Sant'Anna di Vinadio 28-03-2020 20:10 1.4 64 0 1013.1
Sant'Anna di Vinadio 28-03-2020 20:20 1.4 64 0 1013.1
Sant'Anna di Vinadio 28-03-2020 20:30 1.3 64 0 1013.2
Sant'Anna di Vinadio 28-03-2020 20:40 1.2 64 0 1013.3
Sant'Anna di Vinadio 28-03-2020 20:50 1.1 63 0 1013.3
Sant'Anna di Vinadio 28-03-2020 21:00 1.2 63 0 1013.3
Sant'Anna di Vinadio 28-03-2020 21:10 1.3 62 0 1013.3
Sant'Anna di Vinadio 28-03-2020 21:20 1.3 60 0 1013.4
Sant'Anna di Vinadio 28-03-2020 21:30 1.1 61 0 1013.4
Sant'Anna di Vinadio 28-03-2020 21:40 1.1 59 0 1013.4
Sant'Anna di Vinadio 28-03-2020 21:50 1.5 58 0 1013.4
Sant'Anna di Vinadio 28-03-2020 22:00 1.7 56 0 1013.3
Sant'Anna di Vinadio 28-03-2020 22:10 1.8 55 0 1013.3
Sant'Anna di Vinadio 28-03-2020 22:20 1.8 54 0 1013.3
Sant'Anna di Vinadio 28-03-2020 22:30 1.7 54 0 1013.3
Sant'Anna di Vinadio 28-03-2020 22:40 1.6 54 0 1013.3
Sant'Anna di Vinadio 28-03-2020 22:50 1.8 54 0 1013.4
Sant'Anna di Vinadio 28-03-2020 23:00 1.7 52 0 1013.4
Sant'Anna di Vinadio 28-03-2020 23:10 1.6 52 0 1013.4
Sant'Anna di Vinadio 28-03-2020 23:20 1.4 54 0 1013.3
Sant'Anna di Vinadio 28-03-2020 23:30 1 55 0 1013.3
Sant'Anna di Vinadio 28-03-2020 23:40 1 55 0 1013.3
Sant'Anna di Vinadio 28-03-2020 23:50 1 54 0 1013.3
Sant'Anna di Vinadio 29-03-2020 00:00 1.5 53 0 1013.3
Sant'Anna di Vinadio 29-03-2020 00:10 1.9 52 0 1013.3
Sant'Anna di Vinadio 29-03-2020 00:20 1.6 52 0 1013.3
Sant'Anna di Vinadio 29-03-2020 00:30 1.1 52 0 1013.3
Sant'Anna di Vinadio 29-03-2020 00:40 1.3 51 0 1013.3
Sant'Anna di Vinadio 29-03-2020 00:50 1.3 51 0 1013.3
Sant'Anna di Vinadio 29-03-2020 01:00 0.7 52 0 1013.3
Sant'Anna di Vinadio 29-03-2020 01:10 0.9 52 0 1013.3
Sant'Anna di Vinadio 29-03-2020 01:20 0.8 52 0 1013.3
Sant'Anna di Vinadio 29-03-2020 01:30 0.6 51 0 1013.2
Sant'Anna di Vinadio 29-03-2020 01:40 0.6 51 0 1013.1
Sant'Anna di Vinadio 29-03-2020 01:50 0.7 52 0 1013
Sant'Anna di Vinadio 29-03-2020 03:00 0.7 50 0 1013
Sant'Anna di Vinadio 29-03-2020 03:10 0.8 50 0 1012.9
Sant'Anna di Vinadio 29-03-2020 03:20 0.9 48 0 1012.9
Sant'Anna di Vinadio 29-03-2020 03:30 0.9 47 0 1012.8
Sant'Anna di Vinadio 29-03-2020 03:40 0.8 47 0 1012.8
Sant'Anna di Vinadio 29-03-2020 03:50 0.7 47 0 1012.7
Sant'Anna di Vinadio 29-03-2020 05:00 0.9 47 0 1012.5

Riassuntivo giornaliero del 29-03-2020